Weather History for Litchfield, MN

Change the Weather History Date:

Tuesday, September 6, 2011

  Actual Average Record
Temperature  
Mean Temperature 60 °F -  
Max Temperature 71 °F 77 °F 94 °F (1960)
Min Temperature 48 °F 54 °F 36 °F (1956)
Degree Days  
Heating Degree Days 6    
Growing Degree Days 10 (Base 50)    
Moisture  
Dew Point 49 °F    
Average Humidity 68    
Maximum Humidity 94    
Minimum Humidity 43    
Precipitation  
Precipitation 0.00 in - - ()
Sea Level Pressure  
Sea Level Pressure 30.18 in    
Wind  
Wind Speed 3 mph (SSE)    
Max Wind Speed 8 mph    
Max Gust Speed -    
Visibility 10 miles    
Events      
Averages and records for this station are not official NWS values.
T = Trace of Precipitation, MM = Missing Value Source: NWS Daily Summary

Daily Weather History Graph

Daily Weather History Graph

Search for Another Location

Airport:

Trip Planner

Search our weather history database for the weather conditions in past years. The results will help you decide how hot, cold, wet, or windy it might be!

Date:

Astronomy

Sep. 06, 2011 Rise Set
Actual Time 6:45 AM CDT 7:46 PM CDT
Civil Twilight 6:15 AM CDT 8:16 PM CDT
Nautical Twilight 5:39 AM CDT 8:52 PM CDT
Astronomical Twilight 5:01 AM CDT 9:29 PM CDT
Moon 4:34 PM CDT (9/6) 12:48 AM CDT (9/6)
Length of Visible Light 14h 00m
Length of Day
13h 00m
Waxing Gibbous, 71% of the Moon is Illuminated
Sep 6
Waxing Gibbous
Sep 12
Full
Sep 20
Last Quarter
Sep 27
New
Oct 3
First Quarter

Hourly Weather History & Observations

Time (CDT) Temp. Dew Point Humidity Pressure Visibility Wind Dir Wind Speed Gust Speed Precip Events Conditions
12:13 AM 53.6 °F 48.2 °F 82% 30.15 in 10.0 mi Calm Calm - N/A   Clear
12:33 AM 55.4 °F 48.2 °F 77% 30.15 in 10.0 mi SSE 3.5 mph - N/A   Scattered Clouds
12:53 AM 55.4 °F 48.2 °F 77% 30.15 in 10.0 mi SSE 3.5 mph - N/A   Scattered Clouds
1:13 AM 55.4 °F 48.2 °F 77% 30.15 in 10.0 mi SSE 3.5 mph - N/A   Scattered Clouds
1:33 AM 55.4 °F 48.2 °F 77% 30.15 in 10.0 mi Calm Calm - N/A   Scattered Clouds
1:53 AM 55.4 °F 48.2 °F 77% 30.15 in 10.0 mi SSE 3.5 mph - N/A   Scattered Clouds
2:13 AM 53.6 °F 48.2 °F 82% 30.15 in 10.0 mi SSE 3.5 mph - N/A   Scattered Clouds
2:33 AM 53.6 °F 48.2 °F 82% 30.15 in 10.0 mi SSE 3.5 mph - N/A   Scattered Clouds
2:53 AM 53.6 °F 48.2 °F 82% 30.15 in 10.0 mi SSE 3.5 mph - N/A   Scattered Clouds
3:13 AM 53.6 °F 48.2 °F 82% 30.15 in 10.0 mi Calm Calm - N/A   Scattered Clouds
3:33 AM 51.8 °F 48.2 °F 88% 30.16 in 10.0 mi Calm Calm - N/A   Scattered Clouds
3:53 AM 51.8 °F 48.2 °F 88% 30.15 in 10.0 mi SSE 3.5 mph - N/A   Scattered Clouds
4:13 AM 51.8 °F 48.2 °F 88% 30.15 in 10.0 mi Calm Calm - N/A   Scattered Clouds
4:33 AM 51.8 °F 46.4 °F 82% 30.15 in 10.0 mi SSE 3.5 mph - N/A   Scattered Clouds
4:53 AM 51.8 °F 46.4 °F 82% 30.16 in 10.0 mi Calm Calm - N/A   Scattered Clouds
5:33 AM 51.8 °F 48.2 °F 88% 30.16 in 10.0 mi SSE 3.5 mph - N/A   Scattered Clouds
5:53 AM 48.2 °F 46.4 °F 93% 30.17 in 10.0 mi SE 4.6 mph - N/A   Scattered Clouds
6:13 AM 48.2 °F 46.4 °F 93% 30.17 in 10.0 mi SSE 3.5 mph - N/A   Scattered Clouds
6:34 AM 50.0 °F 48.2 °F 94% 30.18 in 10.0 mi SSE 3.5 mph - N/A   Scattered Clouds
6:53 AM 51.8 °F 48.2 °F 88% 30.18 in 10.0 mi Calm Calm - N/A   Clear
7:13 AM 51.8 °F 48.2 °F 88% 30.18 in 10.0 mi Calm Calm - N/A   Clear
7:34 AM 51.8 °F 48.2 °F 88% 30.19 in 10.0 mi Calm Calm - N/A   Clear
7:53 AM 51.8 °F 48.2 °F 88% 30.19 in 10.0 mi SSE 4.6 mph - N/A   Clear
8:13 AM 53.6 °F 48.2 °F 82% 30.19 in 10.0 mi SSE 5.8 mph - N/A   Clear
8:33 AM 53.6 °F 48.2 °F 82% 30.19 in 10.0 mi SSE 4.6 mph - N/A   Clear
9:13 AM 57.2 °F 51.8 °F 82% 30.20 in 10.0 mi SSE 3.5 mph - N/A   Clear
9:32 AM 57.2 °F 51.8 °F 82% 30.20 in 10.0 mi SSE 4.6 mph - N/A   Clear
9:53 AM 60.8 °F 51.8 °F 72% 30.20 in 10.0 mi South 4.6 mph - N/A   Clear
10:13 AM 62.6 °F 51.8 °F 68% 30.20 in 10.0 mi SSE 4.6 mph - N/A   Clear
10:33 AM 62.6 °F 51.8 °F 68% 30.20 in 10.0 mi SSE 4.6 mph - N/A   Clear
11:13 AM 66.2 °F 50.0 °F 56% 30.21 in 10.0 mi SSE 5.8 mph - N/A   Clear
11:33 AM 66.2 °F 46.4 °F 49% 30.21 in 10.0 mi South 6.9 mph - N/A   Clear
11:53 AM 66.2 °F 46.4 °F 49% 30.21 in 10.0 mi SSE 6.9 mph - N/A   Clear
12:13 PM 68.0 °F 46.4 °F 46% 30.21 in 10.0 mi South 6.9 mph - N/A   Clear
12:33 PM 68.0 °F 46.4 °F 46% 30.21 in 10.0 mi SE 6.9 mph - N/A   Clear
12:53 PM 69.8 °F 48.2 °F 46% 30.20 in 10.0 mi South 4.6 mph - N/A   Clear
1:13 PM 69.8 °F 46.4 °F 43% 30.20 in 10.0 mi SSE 4.6 mph - N/A   Clear
1:33 PM 69.8 °F 48.2 °F 46% 30.19 in 10.0 mi SSE 8.1 mph - N/A   Clear
1:53 PM 69.8 °F 46.4 °F 43% 30.19 in 10.0 mi South 5.8 mph - N/A   Clear
2:14 PM 69.8 °F 46.4 °F 43% 30.18 in 10.0 mi SSE 5.8 mph - N/A   Clear
2:33 PM 69.8 °F 48.2 °F 46% 30.18 in 10.0 mi South 4.6 mph - N/A   Clear
2:53 PM 69.8 °F 48.2 °F 46% 30.17 in 10.0 mi SSE 5.8 mph - N/A   Clear
3:14 PM 71.6 °F 48.2 °F 43% 30.17 in 10.0 mi SSE 4.6 mph - N/A   Clear
3:33 PM 71.6 °F 48.2 °F 43% 30.17 in 10.0 mi South 4.6 mph - N/A   Clear
3:53 PM 71.6 °F 48.2 °F 43% 30.17 in 10.0 mi SSE 4.6 mph - N/A   Clear
4:14 PM 71.6 °F 48.2 °F 43% 30.16 in 10.0 mi Calm Calm - N/A   Clear
4:33 PM 71.6 °F 48.2 °F 43% 30.16 in 10.0 mi SSE 5.8 mph - N/A   Clear
4:53 PM 71.6 °F 48.2 °F 43% 30.16 in 10.0 mi SSE 3.5 mph - N/A   Clear
5:13 PM 71.6 °F 48.2 °F 43% 30.17 in 10.0 mi SSE 3.5 mph - N/A   Clear
5:33 PM 69.8 °F 48.2 °F 46% 30.17 in 10.0 mi SSE 5.8 mph - N/A   Clear
5:53 PM 69.8 °F 48.2 °F 46% 30.17 in 10.0 mi SSE 4.6 mph - N/A   Clear
6:13 PM 69.8 °F 50.0 °F 49% 30.17 in 10.0 mi SSE 4.6 mph - N/A   Clear
6:33 PM 68.0 °F 51.8 °F 56% 30.17 in 10.0 mi SE 4.6 mph - N/A   Clear
7:13 PM 64.4 °F 51.8 °F 64% 30.17 in 10.0 mi SE 4.6 mph - N/A   Clear
7:33 PM 64.4 °F 51.8 °F 64% 30.17 in 10.0 mi SE 4.6 mph - N/A   Clear
7:53 PM 62.6 °F 51.8 °F 68% 30.18 in 10.0 mi SE 5.8 mph - N/A   Clear
8:13 PM 60.8 °F 51.8 °F 72% 30.18 in 10.0 mi SE 4.6 mph - N/A   Clear
8:33 PM 60.8 °F 51.8 °F 72% 30.18 in 10.0 mi SE 4.6 mph - N/A   Clear
9:12 PM 57.2 °F 53.6 °F 88% 30.19 in 10.0 mi SSE 3.5 mph - N/A   Scattered Clouds
9:33 PM 57.2 °F 53.6 °F 88% 30.19 in 10.0 mi SE 4.6 mph - N/A   Scattered Clouds
9:53 PM 57.2 °F 51.8 °F 82% 30.19 in 10.0 mi SE 3.5 mph - N/A   Clear
10:13 PM 55.4 °F 51.8 °F 88% 30.19 in 10.0 mi SE 3.5 mph - N/A   Clear
10:53 PM 55.4 °F 51.8 °F 88% 30.21 in 10.0 mi Calm Calm - N/A   Scattered Clouds
11:13 PM 55.4 °F 51.8 °F 88% 30.21 in 10.0 mi Calm Calm - N/A   Scattered Clouds
11:33 PM 55.4 °F 51.8 °F 88% 30.21 in 10.0 mi Calm Calm - N/A   Scattered Clouds
11:53 PM 55.4 °F 53.6 °F 94% 30.22 in 10.0 mi Calm Calm - N/A   Scattered Clouds